Temperature
-0 0 -0 0 0 -0 -1 -0 0 1 1 2 2 1 2 2 2 2 2 2 2 2 2 1 1 1 1 1 1 1 1 1 0 0 0 -0 -0 -0 -0 -0 -0 -1 -1 -1
-1 -0 -0 -0 0 -0 -0 -0 -0 0 1 2 2 1 1 1 1 1 1 1 1 1 1 1 1 1 1 0 0 0 0 0 -0 -0 -0 -1 -1 -1 -1 -1 -1 -1 -1 -1
-0 -1 -1 -0 0 0 -0 -1 -0 1 2 1 1 1 1 1 1 1 1 1 1 1 1 1 1 0 0 0 -0 -0 -0 -0 -0 -1 -1 -1 -1 -1 -1 -1 -2 -2 -2 -2
-2 -1 0 2 1 0 0 0 -1 0 1 1 1 1 2 2 2 1 1 1 1 1 1 0 0 0 -0 -0 -1 -1 -1 -1 -1 -1 -1 -1 -2 -2 -2 -2 -2 -2 -2 -2
-2 -2 -1 1 0 -0 -0 0 -0 -0 0 0 1 0 1 2 2 1 1 1 1 0 0 0 -0 -0 -0 -1 -1 -1 -1 -1 -1 -1 -2 -2 -2 -2 -2 -2 -2 -3 -3 -2
-2 -1 0 2 1 -0 0 0 0 -1 -0 -0 -1 -1 -0 1 1 1 1 0 0 -0 -0 -0 -1 -1 -1 -1 -1 -1 -1 -1 -2 -2 -2 -2 -2 -2 -3 -3 -3 -3 -3 -3
-2 -2 -1 0 -1 -0 1 1 1 0 0 -0 -1 -0 1 1 1 1 0 -0 -0 -1 -1 -1 -1 -1 -1 -1 -2 -2 -2 -2 -2 -2 -2 -2 -3 -3 -3 -3 -3 -3 -3 -3
-3 -2 -0 -0 -1 -0 1 1 1 1 1 0 0 0 0 0 0 0 -0 -0 -1 -1 -1 -1 -1 -2 -2 -2 -2 -2 -2 -2 -2 -2 -3 -3 -3 -3 -3 -3 -3 -3 -4 -3
-2 0 0 0 0 1 2 1 1 1 1 1 -0 -0 -0 -0 -0 -1 -1 -1 -1 -2 -2 -2 -2 -2 -2 -2 -2 -2 -2 -2 -2 -3 -3 -3 -3 -3 -3 -3 -4 -4 -4 -4
-3 -2 -1 0 1 1 1 1 1 1 1 0 -0 -0 -1 -1 -1 -1 -1 -2 -2 -2 -2 -2 -2 -2 -2 -3 -3 -2 -3 -3 -3 -3 -3 -3 -3 -3 -3 -4 -4 -4 -4 -4
-3 -2 -2 -0 1 1 1 1 1 1 0 -0 -0 -1 -1 -1 -1 -1 -2 -2 -2 -2 -3 -3 -3 -3 -3 -3 -3 -3 -3 -3 -3 -3 -3 -3 -3 -4 -4 -4 -4 -4 -4 -5
-1 -1 -2 -0 1 1 1 1 0 0 -0 -1 -1 -1 -1 -2 -2 -2 -2 -2 -3 -3 -3 -3 -3 -3 -3 -3 -3 -3 -3 -3 -3 -3 -3 -4 -4 -4 -4 -4 -4 -5 -5 -5
0 0 0 0 0 0 0 0 -0 -1 -1 -1 -1 -2 -2 -2 -2 -2 -2 -3 -3 -3 -3 -3 -3 -3 -3 -4 -4 -4 -4 -4 -4 -4 -4 -4 -4 -4 -4 -4 -5 -5 -5 -5
-0 -0 -1 -0 -0 -0 -0 -1 -1 -1 -2 -2 -2 -2 -2 -2 -2 -2 -3 -3 -3 -3 -3 -3 -4 -4 -4 -4 -4 -4 -4 -4 -4 -4 -4 -4 -4 -4 -5 -5 -5 -5 -5 -5
-1 -1 -1 -1 -1 -1 -1 -1 -2 -2 -2 -2 -2 -2 -2 -3 -3 -3 -3 -3 -3 -3 -4 -4 -4 -4 -4 -4 -4 -4 -4 -4 -4 -4 -4 -5 -5 -5 -5 -5 -5 -5 -5 -5
-1 -1 -1 -1 -1 -1 -2 -2 -2 -2 -2 -2 -3 -3 -3 -3 -3 -3 -3 -4 -4 -4 -4 -4 -4 -4 -4 -4 -4 -4 -4 -5 -5 -5 -5 -5 -5 -5 -5 -6 -6 -5 -6 -6
-2 -2 -2 -2 -2 -2 -2 -2 -2 -2 -3 -3 -3 -3 -3 -3 -3 -3 -4 -4 -4 -4 -4 -4 -4 -4 -5 -5 -5 -5 -5 -5 -5 -5 -5 -5 -5 -5 -6 -6 -6 -6 -6 -6
-2 -2 -2 -2 -2 -2 -2 -2 -3 -3 -3 -3 -3 -3 -3 -4 -4 -4 -4 -4 -4 -4 -4 -5 -5 -5 -5 -5 -5 -5 -5 -5 -5 -5 -5 -5 -5 -6 -6 -6 -6 -6 -6 -6
-2 -2 -2 -2 -2 -3 -3 -3 -3 -3 -3 -3 -4 -4 -4 -4 -4 -4 -4 -4 -5 -5 -5 -5 -5 -5 -5 -5 -5 -5 -5 -5 -6 -6 -6 -6 -6 -6 -6 -6 -6 -6 -6 -6
-2 -2 -2 -2 -3 -3 -3 -3 -3 -4 -4 -4 -4 -4 -4 -4 -4 -4 -5 -5 -5 -5 -5 -5 -5 -5 -5 -5 -5 -5 -5 -6 -6 -6 -6 -6 -6 -6 -6 -6 -6 -6 -6 -6
-2 -3 -3 -3 -3 -3 -3 -3 -4 -4 -4 -4 -4 -4 -4 -4 -5 -5 -5 -5 -5 -5 -5 -5 -5 -5 -5 -5 -5 -5 -6 -6 -6 -6 -6 -6 -6 -6 -6 -6 -6 -6 -6 -6
-3 -3 -3 -3 -3 -3 -4 -4 -4 -4 -4 -4 -4 -4 -4 -5 -5 -5 -5 -5 -5 -5 -5 -5 -5 -5 -5 -5 -5 -5 -6 -6 -6 -6 -6 -6 -6 -6 -6 -6 -6 -6 -6 -6
-3 -3 -3 -3 -3 -4 -4 -4 -4 -4 -4 -5 -5 -5 -5 -5 -5 -5 -5 -5 -5 -5 -5 -5 -5 -5 -6 -6 -6 -6 -6 -6 -6 -6 -6 -6 -6 -6 -6 -6 -6 -6 -6 -6
-3 -3 -4 -4 -4 -4 -4 -4 -5 -5 -5 -5 -5 -5 -5 -5 -5 -5 -5 -5 -5 -5 -6 -6 -6 -6 -6 -6 -6 -6 -6 -6 -6 -6 -6 -6 -6 -6 -6 -6 -6 -6 -6 -6
-4 -4 -4 -4 -4 -4 -5 -5 -5 -5 -5 -5 -5 -5 -5 -5 -5 -5 -5 -5 -6 -6 -6 -6 -6 -6 -6 -6 -6 -6 -6 -6 -6 -6 -6 -6 -6 -6 -6 -6 -6 -6 -6 -6
-4 -4 -4 -4 -5 -5 -5 -5 -5 -5 -5 -5 -5 -5 -5 -6 -6 -6 -6 -6 -6 -6 -6 -6 -6 -6 -6 -6 -6 -6 -6 -6 -6 -6 -6 -6 -6 -6 -6 -6 -6 -6 -6 -6
-4 -5 -5 -5 -5 -5 -5 -5 -5 -5 -6 -6 -6 -6 -6 -6 -6 -6 -6 -6 -6 -6 -6 -6 -6 -6 -6 -6 -6 -7 -6 -6 -6 -6 -6 -6 -6 -6 -6 -7 -6 -6 -6 -6
Wind_Speed
8 7 4 7 9 9 11 11 10 11 12 13 9 8 7 6 5 4 5 5 4 4 4 3 3 3 2 2 2 2 2 2 3 2 2 1 1 2 2 2 3 3 2 2
6 5 6 10 12 12 13 11 13 13 16 11 8 7 7 7 6 6 6 5 4 4 4 4 4 3 3 3 2 2 2 2 2 2 1 1 1 2 2 2 2 2 2 2
5 4 4 10 12 12 9 10 10 14 14 6 6 7 8 7 7 7 6 5 5 5 5 5 4 4 3 3 2 2 2 2 2 2 2 1 1 1 2 2 2 2 2 2
3 2 8 8 4 8 10 10 12 11 9 7 8 6 6 5 5 5 5 5 5 4 4 4 3 3 3 2 2 2 2 2 2 2 2 1 1 1 2 2 2 2 2 2
2 5 10 8 4 6 7 9 9 12 12 8 4 4 5 4 4 5 5 5 4 4 4 3 3 2 2 2 2 2 3 3 2 2 2 2 1 2 2 1 2 2 2 1
3 4 8 7 3 3 2 7 6 8 9 6 2 3 6 3 2 3 3 3 3 3 3 3 2 1 1 2 2 3 3 3 2 2 2 2 2 2 2 1 2 1 2 1
7 7 9 6 3 4 3 7 3 4 5 5 6 7 4 2 2 2 3 3 2 3 3 3 2 1 2 3 3 3 2 2 2 2 2 2 2 2 1 1 1 1 2 2
5 7 9 4 6 7 7 3 2 3 3 4 5 4 4 3 3 3 3 3 2 2 3 3 2 2 3 4 3 2 1 1 1 1 1 1 1 1 1 1 0 1 1 2
9 9 5 5 7 6 3 4 4 3 4 4 4 5 4 4 3 3 3 3 2 2 3 3 2 2 3 4 2 1 1 1 1 1 1 1 1 1 1 1 0 1 1 1
7 10 9 8 7 6 6 6 5 4 4 4 4 5 4 4 4 3 3 3 2 2 3 3 3 2 3 2 1 1 1 1 1 1 0 0 0 1 1 1 1 1 1 1
8 10 8 7 8 7 6 5 4 3 3 4 4 5 4 4 4 3 3 2 2 3 3 4 3 2 2 1 1 2 2 1 1 1 1 0 0 1 1 2 2 2 2 2
10 8 6 7 5 5 5 6 5 4 4 3 4 5 4 4 4 3 3 2 3 3 3 3 3 2 2 1 2 2 2 1 1 1 1 1 0 1 2 2 2 3 3 3
8 7 7 8 6 5 5 5 5 5 5 5 4 4 4 4 3 2 3 3 3 4 4 3 3 2 2 2 2 3 2 2 1 1 1 1 1 0 1 2 2 2 2 3
7 5 6 7 6 5 4 4 3 3 4 4 4 3 3 3 3 3 4 4 3 3 3 3 3 3 2 2 2 2 2 2 2 2 1 1 1 1 0 1 2 2 3 4
7 7 7 5 4 3 3 2 2 3 3 3 2 2 3 3 4 4 4 3 2 3 3 3 3 3 2 2 3 3 2 2 2 2 1 1 1 1 0 0 1 1 2 3
4 3 4 4 5 4 3 3 4 4 3 3 3 3 3 3 3 3 3 2 2 4 4 3 4 3 3 3 2 2 2 3 2 2 1 1 1 1 1 0 1 1 2 2
3 4 4 5 6 5 5 5 5 5 4 4 4 3 2 2 2 3 3 3 3 4 4 4 4 3 3 3 3 2 2 2 3 2 2 1 1 1 1 0 1 1 2 3
6 6 6 5 5 5 5 4 4 4 4 4 3 2 3 3 4 4 4 3 2 2 3 3 3 3 3 3 3 3 3 3 2 2 1 1 1 1 1 1 1 1 2 3
4 5 5 5 4 4 4 4 4 3 3 2 2 3 4 4 4 3 2 1 2 3 3 2 2 3 3 3 3 3 3 3 2 2 1 2 1 1 0 0 1 1 1 2
3 2 2 2 2 2 3 3 2 2 2 2 2 2 3 3 3 2 2 2 3 3 3 2 2 3 3 3 3 3 3 3 3 2 2 1 1 1 0 1 1 1 1 2
3 2 2 1 1 1 2 2 2 3 2 2 3 3 4 3 2 2 2 3 3 2 2 2 2 2 3 3 3 3 3 3 3 3 2 2 1 1 1 1 1 1 1 2
2 2 2 2 1 2 2 1 2 2 2 2 2 2 2 2 2 2 3 3 3 2 1 2 2 3 4 4 3 3 3 3 2 2 2 2 2 1 1 1 1 1 2 2
3 2 2 2 2 1 1 1 1 2 3 3 3 3 3 3 2 2 2 2 1 2 1 2 3 5 5 4 3 3 3 3 2 2 2 2 2 2 2 2 2 2 2 2
2 2 2 1 0 1 1 2 1 1 2 2 3 3 3 2 2 2 2 2 2 1 1 3 4 5 5 3 3 3 2 2 2 2 2 2 2 1 1 2 2 2 2 2
2 2 1 1 1 2 2 1 1 1 0 0 1 1 1 2 2 1 1 2 2 2 2 3 4 3 3 3 3 2 2 2 2 2 2 2 2 1 1 1 1 2 2 2
2 2 2 2 2 2 1 1 1 1 1 0 1 0 0 1 1 1 1 1 2 2 2 2 2 2 2 2 2 2 2 2 1 1 1 1 1 1 1 1 2 2 2 2
1 1 1 1 1 1 1 2 2 2 2 2 1 0 1 1 2 2 2 2 2 2 2 1 1 2 2 2 2 2 2 1 1 1 1 1 1 1 1 1 1 1 1 2
Wind_Direction
252 260 244 243 239 216 212 218 227 247 252 263 267 267 271 270 270 277 286 286 282 284 285 282 282 280 274 275 272 253 239 243 256 256 250 259 281 286 287 290 287 273 266 276
268 259 257 263 249 232 230 231 239 258 267 260 260 262 261 259 256 263 272 276 283 288 287 278 270 272 270 267 264 248 238 252 262 264 259 264 280 292 301 302 304 291 278 276
269 295 307 265 236 217 220 215 209 235 251 256 261 260 259 255 247 253 262 271 275 273 272 269 263 259 256 254 252 236 237 256 266 254 249 257 270 288 289 291 299 305 299 286
276 331 252 250 221 207 224 238 222 237 250 246 250 266 267 241 234 255 262 266 272 271 274 275 268 276 274 261 239 232 237 246 249 239 248 260 267 277 277 279 280 287 295 292
214 254 274 284 241 194 210 258 226 235 251 256 267 309 287 242 222 239 250 258 262 267 270 274 268 274 281 267 245 237 243 245 242 227 242 261 265 270 271 267 276 277 276 277
204 237 255 261 238 191 152 277 245 220 237 242 188 274 272 263 246 252 262 265 275 292 288 278 272 261 254 255 245 245 249 245 233 220 229 241 249 256 267 260 272 295 307 306
220 241 264 257 206 139 184 255 263 219 232 217 210 230 257 275 277 274 282 287 287 293 282 274 263 238 248 252 248 251 248 239 233 224 228 229 239 247 232 253 305 320 323 316
197 230 256 205 152 190 226 261 242 238 231 225 239 258 269 270 270 276 287 291 291 290 285 289 265 224 247 256 258 250 231 229 235 231 230 221 208 225 207 174 177 322 328 327
207 229 257 193 212 234 233 247 250 243 246 227 241 258 266 270 269 267 267 279 285 274 284 297 280 223 238 258 254 235 210 228 244 239 229 206 182 183 174 167 185 295 300 319
255 264 264 259 255 256 241 239 251 244 237 221 238 251 261 267 270 274 275 279 282 268 270 285 285 257 244 252 224 185 205 223 216 172 301 72 176 196 196 207 225 265 290 297
255 269 282 266 243 246 252 257 264 260 235 231 231 244 247 258 262 265 277 283 275 255 257 271 280 274 262 242 192 187 205 206 189 167 189 190 276 248 243 238 231 245 256 261
245 243 233 262 265 244 241 251 251 251 257 248 226 234 245 254 257 256 265 274 279 267 261 267 267 273 273 228 191 184 192 191 185 187 189 160 52 353 335 303 294 300 294 296
243 258 252 270 274 250 239 242 240 235 236 247 247 236 239 255 262 259 266 267 266 265 264 260 256 260 259 226 199 189 193 199 196 192 178 166 160 70 353 356 358 343 325 319
244 248 263 259 260 261 250 246 244 245 241 234 240 240 238 250 259 258 263 265 265 265 265 255 248 256 250 218 205 200 193 201 192 187 185 175 181 208 247 326 344 350 346 343
246 234 243 264 275 278 264 250 250 258 257 260 242 235 238 244 256 264 273 276 272 267 262 248 245 253 232 208 202 195 186 186 180 176 174 166 167 176 202 274 323 335 343 349
261 260 246 252 258 260 249 238 238 249 249 248 252 250 246 246 255 266 273 265 252 260 258 247 245 243 211 194 194 186 185 188 172 165 158 152 159 161 166 247 318 323 320 326
237 258 252 259 256 253 245 240 236 243 244 241 245 244 242 246 261 271 277 275 261 262 257 243 241 231 198 187 182 177 174 177 166 152 154 163 170 171 188 227 273 295 298 303
231 241 242 244 249 252 256 254 245 239 239 241 235 226 227 231 245 260 274 288 296 298 276 240 221 203 187 181 172 170 165 160 154 157 158 162 166 165 180 231 258 286 308 319
245 245 250 252 248 240 242 247 246 241 234 215 210 229 242 246 246 254 262 256 259 274 279 272 218 175 174 174 161 158 155 151 149 151 155 167 137 121 177 233 273 292 303 316
264 256 252 262 255 231 232 237 227 230 227 204 207 229 252 257 248 245 246 251 248 247 252 244 192 168 167 169 158 152 152 151 151 153 151 153 158 173 211 246 272 286 296 304
276 276 267 264 286 279 243 214 199 216 227 210 210 227 244 255 246 226 227 270 279 259 234 208 165 161 164 165 155 145 148 150 155 161 165 167 170 184 216 251 272 283 289 296
270 264 261 255 252 285 291 235 205 209 216 224 229 226 231 246 244 246 247 244 254 246 214 185 168 176 171 153 140 141 146 150 155 159 164 169 176 193 217 242 260 273 277 283
267 257 250 249 241 264 302 274 224 214 219 223 226 227 229 233 223 224 264 259 229 219 187 187 187 170 151 132 134 138 145 150 154 162 170 175 184 199 216 237 252 259 268 280
264 265 262 261 216 222 273 281 268 249 236 238 235 226 216 224 256 249 234 224 218 198 160 173 165 153 137 122 130 136 146 152 157 161 165 172 183 200 215 231 247 258 264 274
244 243 236 225 225 242 247 255 294 285 259 268 274 254 224 206 216 229 198 192 189 154 132 152 148 139 123 122 130 138 149 164 167 161 165 174 189 202 217 233 249 259 264 270
225 234 242 244 239 232 223 205 215 225 179 190 321 299 178 149 155 153 144 148 149 141 124 119 123 123 121 128 135 143 150 161 159 157 170 183 196 201 218 246 267 271 272 275
217 232 249 279 274 237 213 199 198 204 188 180 201 205 135 129 132 136 135 128 124 122 116 119 124 128 128 132 137 143 147 150 154 166 180 192 203 221 243 256 265 272 277 281
Height
1475 1472 1474 1472 1470 1473 1474 1471 1470 1459 1455 1446 1446 1444 1443 1442 1441 1440 1440 1439 1438 1437 1437 1436 1435 1434 1434 1433 1432 1431 1431 1430 1430 1430 1429 1429 1429 1429 1428 1428 1427 1427 1426 1426
1473 1470 1471 1468 1463 1464 1464 1463 1462 1457 1449 1441 1441 1440 1439 1438 1438 1437 1437 1436 1435 1434 1434 1433 1432 1431 1431 1430 1429 1428 1427 1427 1427 1426 1426 1425 1425 1425 1425 1424 1424 1423 1422 1422
1472 1471 1468 1463 1453 1453 1454 1451 1452 1449 1440 1437 1438 1436 1435 1434 1434 1434 1433 1433 1432 1431 1430 1429 1429 1428 1427 1427 1426 1425 1424 1424 1424 1423 1423 1422 1422 1422 1421 1421 1421 1421 1420 1420
1475 1472 1466 1446 1442 1443 1444 1442 1442 1438 1434 1433 1433 1432 1431 1431 1431 1430 1430 1429 1429 1428 1427 1426 1425 1425 1424 1423 1423 1422 1421 1421 1420 1420 1420 1419 1419 1418 1419 1419 1418 1418 1417 1417
1475 1471 1458 1444 1440 1440 1441 1437 1434 1433 1430 1430 1430 1430 1428 1427 1427 1427 1427 1427 1426 1425 1423 1422 1422 1421 1420 1420 1419 1419 1418 1418 1417 1417 1416 1416 1416 1416 1416 1416 1416 1415 1415 1415
1472 1466 1455 1438 1436 1435 1438 1436 1428 1428 1427 1428 1429 1431 1426 1424 1424 1424 1424 1423 1422 1421 1420 1419 1418 1418 1417 1416 1416 1416 1415 1415 1415 1414 1414 1414 1414 1414 1413 1413 1413 1413 1413 1413
1465 1462 1448 1435 1434 1435 1440 1432 1425 1424 1424 1425 1425 1425 1423 1421 1421 1421 1420 1420 1419 1418 1416 1416 1415 1415 1414 1413 1413 1413 1413 1412 1412 1412 1412 1412 1412 1411 1411 1411 1411 1411 1411 1411
1462 1458 1444 1431 1432 1433 1428 1424 1423 1422 1422 1422 1421 1420 1419 1419 1418 1417 1417 1416 1415 1414 1413 1413 1412 1412 1411 1410 1411 1410 1410 1410 1410 1410 1410 1410 1410 1409 1409 1409 1409 1409 1409 1409
1444 1437 1427 1426 1425 1424 1423 1422 1420 1420 1419 1419 1418 1417 1416 1416 1415 1415 1414 1413 1412 1412 1411 1410 1410 1409 1408 1408 1408 1408 1408 1408 1408 1408 1408 1408 1408 1407 1407 1407 1407 1407 1407 1406
1437 1428 1424 1422 1421 1420 1420 1419 1418 1417 1417 1416 1415 1414 1414 1413 1412 1412 1411 1410 1409 1409 1408 1407 1407 1406 1406 1406 1406 1406 1406 1406 1406 1406 1406 1406 1406 1406 1406 1405 1405 1405 1405 1405
1432 1423 1420 1417 1417 1417 1416 1416 1415 1414 1413 1413 1412 1411 1411 1410 1410 1409 1408 1407 1407 1406 1405 1404 1404 1404 1404 1404 1404 1404 1404 1404 1404 1404 1404 1405 1405 1405 1404 1404 1404 1404 1404 1404
1421 1416 1417 1414 1413 1413 1412 1412 1411 1411 1410 1409 1409 1408 1408 1407 1407 1406 1405 1405 1404 1403 1402 1402 1401 1401 1401 1401 1401 1401 1401 1402 1402 1402 1403 1403 1403 1403 1403 1403 1403 1403 1403 1403
1413 1411 1411 1409 1408 1408 1407 1407 1407 1407 1406 1405 1405 1405 1404 1404 1404 1403 1403 1402 1401 1400 1400 1399 1399 1399 1399 1399 1399 1399 1399 1400 1400 1401 1401 1401 1401 1401 1401 1401 1402 1402 1401 1401
1408 1408 1406 1405 1405 1404 1403 1403 1403 1403 1402 1402 1402 1401 1401 1401 1401 1400 1400 1399 1398 1398 1397 1397 1396 1396 1396 1396 1397 1397 1397 1398 1398 1399 1400 1400 1400 1400 1400 1400 1400 1399 1400 1400
1403 1404 1403 1401 1401 1400 1400 1400 1399 1399 1398 1398 1398 1398 1398 1398 1397 1397 1397 1396 1395 1395 1394 1394 1393 1394 1394 1394 1394 1395 1395 1396 1397 1398 1398 1399 1399 1399 1399 1399 1399 1398 1398 1398
1399 1399 1398 1398 1397 1397 1396 1396 1396 1395 1395 1395 1395 1395 1395 1395 1394 1394 1393 1393 1392 1392 1391 1391 1391 1391 1391 1392 1392 1393 1394 1394 1395 1396 1397 1398 1398 1398 1398 1398 1398 1398 1397 1397
1395 1394 1393 1393 1393 1392 1392 1392 1392 1391 1391 1391 1391 1392 1392 1391 1391 1390 1390 1390 1390 1389 1388 1388 1388 1388 1389 1389 1390 1391 1392 1393 1394 1395 1396 1397 1397 1397 1397 1397 1397 1397 1397 1396
1391 1391 1390 1390 1389 1389 1388 1388 1388 1388 1388 1389 1389 1389 1388 1388 1388 1387 1387 1387 1386 1386 1386 1386 1386 1386 1387 1387 1388 1389 1390 1391 1392 1394 1395 1396 1396 1397 1397 1397 1397 1396 1396 1395
1387 1387 1387 1386 1386 1386 1385 1385 1385 1385 1385 1386 1386 1386 1385 1385 1385 1384 1384 1384 1383 1383 1384 1384 1384 1384 1385 1386 1387 1388 1389 1390 1392 1393 1394 1395 1395 1396 1396 1396 1396 1395 1395 1394
1384 1384 1383 1383 1383 1382 1382 1382 1382 1382 1383 1383 1383 1383 1383 1382 1382 1382 1382 1382 1382 1382 1382 1382 1382 1383 1384 1385 1386 1387 1388 1390 1391 1392 1393 1394 1394 1395 1395 1395 1395 1395 1394 1394
1381 1381 1380 1380 1380 1380 1380 1380 1380 1380 1380 1380 1380 1380 1380 1380 1380 1380 1380 1380 1380 1380 1380 1381 1381 1382 1383 1384 1385 1387 1388 1389 1390 1391 1392 1393 1394 1394 1394 1394 1394 1394 1394 1393
1379 1379 1378 1378 1378 1377 1378 1377 1378 1378 1378 1378 1378 1378 1378 1378 1378 1378 1378 1379 1379 1379 1379 1380 1380 1381 1382 1384 1385 1386 1387 1388 1390 1391 1392 1392 1393 1393 1394 1394 1394 1393 1393 1393
1377 1377 1376 1376 1376 1375 1375 1375 1375 1376 1376 1376 1376 1376 1376 1376 1376 1376 1376 1377 1377 1378 1378 1379 1380 1381 1382 1383 1384 1386 1387 1388 1389 1390 1391 1391 1392 1392 1393 1393 1393 1393 1392 1392
1375 1374 1374 1374 1374 1373 1373 1373 1374 1374 1374 1374 1374 1374 1374 1374 1375 1375 1376 1376 1376 1377 1377 1378 1379 1380 1381 1383 1384 1385 1386 1387 1388 1389 1390 1391 1391 1392 1392 1392 1392 1392 1392 1391
1373 1372 1372 1372 1371 1371 1371 1371 1371 1372 1372 1372 1372 1373 1373 1374 1374 1374 1374 1375 1375 1376 1377 1378 1379 1380 1381 1382 1383 1385 1386 1387 1388 1388 1389 1390 1390 1391 1391 1391 1391 1391 1391 1390
1370 1370 1370 1370 1370 1370 1370 1370 1370 1370 1370 1370 1371 1371 1372 1372 1373 1373 1374 1374 1375 1376 1376 1377 1378 1380 1381 1382 1383 1384 1385 1386 1387 1388 1388 1389 1390 1390 1390 1390 1390 1390 1390 1390
1368 1368 1368 1368 1368 1368 1368 1368 1368 1369 1369 1369 1370 1370 1371 1371 1372 1372 1373 1374 1374 1375 1376 1377 1378 1379 1380 1381 1382 1383 1384 1385 1386 1387 1388 1389 1389 1390 1390 1390 1390 1390 1389 1389